Lid_Strength_Index
7 9 10 9 8 8 8 9 10 9 7 9 9 9 8 7 7 7 7 6 5 5 3 3 3 4 2 2 2 2 2 1 1 1 2 2 2 2 1 3 4 4 5 6
9 10 9 8 8 8 8 10 11 9 7 9 9 10 8 7 7 7 7 6 6 5 4 3 4 4 3 3 2 3 2 2 3 1 1 1 1 1 1 2 4 5 6 7
11 9 8 9 9 9 9 10 11 12 9 8 10 11 9 7 7 6 6 6 6 5 5 4 3 4 3 3 3 4 3 1 2 0 1 3 3 3 2 3 5 6 6 6
10 9 9 9 9 9 11 8 9 10 12 15 10 17 12 10 9 8 7 7 6 6 5 4 4 4 4 3 2 3 2 1 1 1 2 2 2 3 3 5 5 5 6 7
10 10 10 10 10 8 10 7 9 10 12 12 12 15 13 10 12 10 8 7 6 5 5 5 4 3 3 2 2 2 2 2 1 1 2 3 3 4 5 5 6 6 6 6
10 9 9 10 9 8 7 9 9 10 12 17 13 15 15 13 12 10 8 7 6 6 5 4 4 3 3 2 2 3 2 2 1 1 3 3 5 5 6 6 6 7 6 6
11 11 9 8 10 7 8 11 19 19 19 19 12 15 15 11 9 9 9 8 6 6 5 5 5 4 4 3 3 2 2 2 1 2 2 3 4 4 5 6 5 6 7 7
14 15 11 10 9 11 10 11 18 22 22 19 12 18 14 8 7 7 7 7 6 6 6 6 4 4 4 3 3 2 3 2 2 3 3 3 4 5 5 5 6 5 5 6
14 13 10 10 9 9 10 13 10 16 15 19 16 13 10 8 8 8 8 7 7 7 7 7 7 5 3 3 3 3 4 3 4 4 4 4 4 4 5 4 4 4 4 5
11 15 11 11 9 8 10 9 14 15 21 21 15 14 15 11 10 9 9 9 7 7 7 7 7 6 4 4 3 3 3 4 3 3 4 4 3 3 3 3 4 4 4 4
11 13 13 11 12 12 11 12 11 12 14 19 19 16 10 10 9 9 8 9 8 8 8 7 7 7 7 6 6 5 6 6 6 6 6 6 6 5 5 6 5 6 5 6
11 13 15 13 11 10 11 12 12 15 16 14 15 15 8 8 8 8 8 9 8 7 7 7 8 8 8 8 7 7 7 8 8 8 7 7 8 8 8 8 8 6 6 6
11 13 16 15 13 11 13 12 12 13 13 15 17 15 8 7 8 7 8 8 8 8 8 8 8 9 9 8 8 9 8 8 8 8 8 9 9 9 10 10 9 8 6 6
9 13 14 16 14 13 14 12 13 14 16 14 14 14 10 9 9 8 8 9 9 8 8 8 9 9 9 9 8 8 9 9 9 9 9 10 10 10 10 10 9 9 9 9
11 14 12 12 12 13 13 13 13 15 14 16 13 12 11 9 8 8 7 6 8 8 8 8 9 10 9 9 10 10 10 10 10 10 10 11 10 10 9 9 9 9 10 10
11 14 14 14 12 12 14 13 12 13 13 13 12 12 9 8 7 7 7 6 7 8 8 8 8 8 9 10 10 9 9 9 9 9 9 9 9 9 9 10 10 10 10 10
13 14 14 16 13 13 15 13 12 12 11 12 14 12 9 9 7 7 7 6 6 7 7 7 7 8 8 9 9 9 9 9 9 9 9 9 9 10 10 10 10 10 11 10
13 13 13 16 14 18 13 11 11 11 11 10 11 10 9 9 8 7 5 6 6 6 7 7 8 8 8 8 9 9 9 9 9 10 10 9 10 10 10 10 11 11 10 11
11 13 15 17 16 13 12 11 12 13 12 10 11 10 9 8 9 9 6 5 6 6 6 7 7 8 8 8 8 8 9 9 9 9 10 10 10 10 10 10 10 10 11 11
11 12 14 15 18 18 13 11 10 10 15 10 9 10 10 9 13 11 8 6 6 6 6 7 7 7 8 8 8 8 9 9 10 9 10 9 9 10 10 10 11 11 11 12
15 15 16 16 16 13 10 11 10 16 13 11 10 10 9 10 10 8 7 8 7 7 7 7 8 8 8 8 8 9 9 10 9 9 9 9 9 10 10 11 11 12 12 12
13 15 16 15 16 17 10 12 13 10 10 9 10 9 9 9 9 8 7 8 8 8 8 8 9 9 9 8 8 9 9 9 9 9 9 10 10 10 10 12 12 13 13 14
13 10 12 12 12 9 9 10 9 8 9 9 9 9 8 8 9 8 8 8 8 8 9 9 9 9 9 9 9 9 9 9 9 10 10 11 10 11 12 13 14 13 13 14
10 8 10 11 9 9 9 9 9 8 8 8 8 7 8 9 8 9 8 8 8 8 8 9 9 10 11 10 9 9 9 9 10 11 11 11 12 12 13 12 13 13 14 14
9 9 10 10 10 9 8 9 9 8 8 8 7 7 7 8 8 8 9 8 8 7 8 8 9 10 10 10 10 9 9 10 11 11 11 11 12 13 13 13 13 13 14 13
10 10 11 11 9 9 9 8 8 8 8 7 8 8 7 7 8 8 8 8 8 8 8 8 9 10 10 10 10 10 10 10 11 12 12 12 13 13 13 14 14 11 11 11